Regional Weather Roundup
Issued by NWS State College, PA

Home | Current Version | Previous Version | Text Only | Print | Product List | Glossary On
Versions: 1 2 3 4 5 6 7 8 9 10 11 12 13 14 15 16 17 18 19 20 21 22 23 24 25 26 27 28 29 30 31 32 33 34 35 36 37 38 39 40 41 42 43 44 45 46 47 48 49 50
000
ASUS41 KCTP 240710
RWRCTP

REGIONAL WEATHER ROUNDUP
NATIONAL WEATHER SERVICE STATE COLLEGE PA
300 AM EDT THU APR 24 2014

Note: "fair" indicates few or no clouds below 12,000 feet with no
significant weather and/or obstructions to visibility.

* = STATION THAT DOES NOT REPORT PRECIPITATION /E.G. RAIN...SNOW...ETC/
    THUNDER OR FOG.

PAZ002>004-007>009-013>016-020>023-029>032-240800-
WESTERN PENNSYLVANIA

CITY           SKY/WX    TMP DP  RH WIND       PRES   REMARKS
ERIE           CLEAR     31  25  78 CALM      30.11F
MEADVILLE      NOT AVBL
FRANKLIN*      CLEAR     28  16  59 NW3       30.09F
NEW CASTLE     FAIR      30  16  56 CALM      30.11F
BEAVER COUNTY  NOT AVBL
BUTLER*        CLEAR     30  12  47 CALM      30.10S
PITTSBURGH INT CLEAR     35  15  44 N7        30.08F
PITTSBURGH     CLEAR     36  12  37 N7        30.07F
INDIANA*       CLEAR     28  23  80 CALM      30.07F
LATROBE        CLEAR     32  19  59 S5        30.08F
WASHINGTON CO* CLEAR     27  21  80 CALM      30.10S
$$

PAZ004>006-010>012-017>019-024>028-033>037-041-042-045-046-049>053-240800-
CENTRAL PENNSYLVANIA

CITY           SKY/WX    TMP DP  RH WIND       PRES   REMARKS
BRADFORD       CLEAR     29  17  61 NW3       30.02S
DUBOIS         CLEAR     31  21  66 NW6       30.03F
CLEARFIELD     CLEAR     33  23  66 W5        30.03F
JOHNSTOWN      CLEAR     30  15  53 NW6       30.00F
ALTOONA        CLEAR     36  21  54 N9        30.03S
STATE COLLEGE  CLEAR     38  20  48 NW9       30.01F
WILLIAMSPORT   CLEAR     39  16  39 W10       29.99S
SELINSGROVE    CLEAR     41  19  41 CALM      30.00S
FT INDIANTOWN  CLEAR     44  19  37 W8G16     29.96S
CAPITAL CITY   CLEAR     45  23  42 NW14      29.98S
HARRISBURG     CLEAR     46  23  40 NW13      29.97S
YORK           CLEAR     42  25  50 W6        29.98S
$$

PAZ038>040-043-044-047-048-054-055-060>062-067>071-240800-
EASTERN PENNSYLVANIA

CITY           SKY/WX    TMP DP  RH WIND       PRES   REMARKS
SCRANTON       CLEAR     37  22  54 NW15      29.92S
MOUNT POCONO   CLEAR     34  21  59 NW15G30   29.83F
ALLENTOWN      CLEAR     41  23  48 NW7       29.91F
QUAKERTOWN*    CLEAR     41  25  52 NW7       29.91S
READING        CLEAR     43  21  41 NW16      29.93S
LANCASTER      CLEAR     36  26  67 NW7       29.95S
COATESVILLE    NOT AVBL
POTTSTOWN      CLEAR     40  27  59 W8        29.93S
BLUE BELL      CLEAR     43  28  56 CALM      29.90S
DOYLESTOWN     CLEAR     41  26  55 NW12      29.88F
WILLOW GROVE   NOT AVBL
NORTH PHILA    CLEAR     45  25  45 W9        29.92S
PHILADELPHIA   CLEAR     45  25  45 W9        29.94S
$$



USA.gov is the U.S. government's official web portal to all federal, state and local government web resources and services.